Franklin, PA

3:06 AM EDT on October 15, 2019 (GMT -0400)
Venango Regional

Weather History for KFKL - August, 2019

Change the Weather History Date:

Sunday, August 25, 2019

  Actual Average Record
Temperature  
Mean Temperature 60 °F -  
Max Temperature 73 °F 78 °F 93 °F (1932)
Min Temperature 48 °F 56 °F 36 °F (1935)
Degree Days  
Heating Degree Days 4    
Growing Degree Days 10 (Base 50)    
Moisture  
Dew Point 50 °F    
Average Humidity 80    
Maximum Humidity 100    
Minimum Humidity 44    
Precipitation  
Precipitation 0.00 in - - ()
Sea Level Pressure  
Sea Level Pressure 30.25 in    
Wind  
Wind Speed 5 mph (East)    
Max Wind Speed 16 mph    
Max Gust Speed 20 mph    
Visibility 6 miles    
Events Fog    
Averages and records for this station are not official NWS values.
T = Trace of Precipitation, MM = Missing Value Source: NWS Daily Summary

Daily Weather History Graph

Daily Weather History Graph

Search for Another Location

Airport or City:

Astronomy

Aug. 25, 2019 Rise Set
Actual Time 6:38 AM EDT 8:03 PM EDT
Civil Twilight 6:09 AM EDT 8:32 PM EDT
Nautical Twilight 5:34 AM EDT 9:07 PM EDT
Astronomical Twilight 4:57 AM EDT 9:44 PM EDT
Moon 1:10 AM EDT (8/25) 4:25 PM EDT (8/25)
Length of Visible Light 14h 23m
Length of Day
13h 25m
Waning Crescent, 29% of the Moon is Illuminated
Aug 25
Waning Crescent
Aug 30
New
Sep 5
First Quarter
Sep 14
Full
Sep 21
Last Quarter

Hourly Weather History & Observations

Time (EDT) Temp. Dew Point Humidity Pressure Visibility Wind Dir Wind Speed Gust Speed Precip Events Conditions
12:56 AM 54.0 °F 51.1 °F 90% 30.30 in 10.0 mi ENE 3.5 mph - N/A   Clear
1:56 AM 52.0 °F 51.1 °F 97% 30.28 in 10.0 mi ENE 4.6 mph - N/A   Clear
2:56 AM 53.1 °F 51.1 °F 93% 30.26 in 10.0 mi East 4.6 mph - N/A   Clear
3:56 AM 51.1 °F 50.0 °F 96% 30.26 in 10.0 mi East 4.6 mph - N/A   Clear
4:13 AM 50.0 °F 48.2 °F 94% 30.26 in 1.5 mi NE 3.5 mph - N/A   Clear
4:15 AM 50.0 °F 48.2 °F 94% 30.26 in 1.0 mi NE 3.5 mph - N/A   Mist
4:17 AM 48.2 °F 48.2 °F 100% 30.26 in 0.5 mi NNE 3.5 mph - N/A Fog Fog
4:26 AM 48.2 °F 48.2 °F 100% 30.26 in 0.2 mi Calm Calm - N/A Fog Fog
4:33 AM 50.0 °F 48.2 °F 94% 30.25 in 0.5 mi Calm Calm - N/A Fog Fog
4:42 AM 48.2 °F 48.2 °F 100% 30.26 in 1.0 mi ENE 3.5 mph - N/A   Overcast
4:50 AM 48.2 °F 48.2 °F 100% 30.26 in 0.5 mi NE 3.5 mph - N/A Fog Fog
4:56 AM 48.9 °F 48.0 °F 97% 30.26 in 0.2 mi Calm Calm - N/A Fog Fog
5:56 AM 50.0 °F 50.0 °F 100% 30.27 in 0.2 mi ENE 4.6 mph - N/A Fog Fog
6:56 AM 50.0 °F 48.9 °F 96% 30.29 in 0.2 mi NE 4.6 mph - N/A Fog Fog
7:39 AM 50.0 °F 50.0 °F 100% 30.29 in 0.5 mi ENE 3.5 mph - N/A Fog Fog
7:44 AM 50.0 °F 50.0 °F 100% 30.29 in 1.0 mi ENE 4.6 mph - N/A   Overcast
7:47 AM 51.8 °F 50.0 °F 94% 30.29 in 2.0 mi North - - N/A   Mostly Cloudy
7:56 AM 51.1 °F 51.1 °F 100% 30.30 in 9.0 mi ENE 5.8 mph - N/A   Mostly Cloudy
8:03 AM 51.8 °F 51.8 °F 100% 30.29 in 10.0 mi East 5.8 mph - N/A   Scattered Clouds
8:56 AM 55.0 °F 51.1 °F 86% 30.30 in 10.0 mi East 8.1 mph - N/A   Clear
9:56 AM 62.1 °F 54.0 °F 75% 30.29 in 10.0 mi East 4.6 mph - N/A   Clear
10:56 AM 66.9 °F 53.1 °F 61% 30.28 in 10.0 mi East 8.1 mph - N/A   Clear
11:56 AM 70.0 °F 48.9 °F 47% 30.27 in 10.0 mi ESE 16.1 mph 19.6 mph N/A   Clear
12:56 PM 71.1 °F 50.0 °F 47% 30.25 in 10.0 mi Variable 6.9 mph 18.4 mph N/A   Partly Cloudy
1:56 PM 72.0 °F 51.1 °F 48% 30.24 in 10.0 mi ESE 13.8 mph - N/A   Scattered Clouds
2:56 PM 71.1 °F 51.1 °F 49% 30.23 in 10.0 mi ESE 10.4 mph - N/A   Scattered Clouds
3:56 PM 73.0 °F 50.0 °F 44% 30.22 in 10.0 mi SE 11.5 mph 17.3 mph N/A   Partly Cloudy
4:56 PM 72.0 °F 51.1 °F 48% 30.22 in 10.0 mi ESE 11.5 mph - N/A   Mostly Cloudy
5:56 PM 71.1 °F 52.0 °F 51% 30.21 in 10.0 mi ESE 8.1 mph - N/A   Mostly Cloudy
6:56 PM 69.1 °F 51.1 °F 53% 30.21 in 10.0 mi ESE 5.8 mph - N/A   Clear
7:56 PM 64.9 °F 51.1 °F 61% 30.20 in 10.0 mi SE 5.8 mph - N/A   Clear
8:56 PM 63.0 °F 52.0 °F 67% 30.20 in 10.0 mi East 5.8 mph - N/A   Clear
9:56 PM 61.0 °F 52.0 °F 72% 30.19 in 10.0 mi ESE 3.5 mph - N/A   Clear
10:56 PM 59.0 °F 52.0 °F 78% 30.20 in 10.0 mi ESE 4.6 mph - N/A   Clear
11:56 PM 57.0 °F 52.0 °F 83% 30.20 in 10.0 mi ESE 4.6 mph - N/A   Clear